Lid_Strength_Index
4 4 4 3 3 3 2 2 2 1 2 2 2 2 2 2 3 4 5 5 4 5 4 4 4 3 3 3 5 5 6 7
5 4 4 3 3 3 2 2 1 1 2 3 3 2 2 3 4 5 5 5 5 5 6 5 5 4 4 4 5 6 6 6
5 5 4 4 3 3 2 2 2 1 1 2 2 3 3 4 5 6 6 5 5 5 5 6 6 5 4 5 5 5 6 7
5 4 4 4 3 3 2 2 2 2 2 3 2 3 3 3 4 5 5 5 5 7 8 7 7 5 5 4 5 6 6 7
5 4 4 4 3 2 2 2 2 2 2 3 3 3 3 3 4 5 5 6 7 8 8 8 8 7 5 4 3 5 5 6
5 4 4 3 2 3 3 3 3 3 3 3 3 3 3 3 3 4 5 6 7 7 7 8 9 8 6 4 4 5 5 5
4 4 4 3 3 3 3 4 4 4 4 3 2 2 2 2 2 3 4 6 6 6 6 7 8 8 6 4 4 5 5 6
4 3 3 3 3 3 3 4 4 4 2 2 2 2 1 1 1 2 2 4 4 4 5 6 4 8 6 5 4 4 5 5
3 3 3 2 3 3 4 4 3 3 2 2 1 1 1 3 3 3 4 5 5 5 5 4 4 6 7 6 6 5 5 5
3 3 3 2 3 4 5 5 3 3 2 2 2 2 2 2 3 4 4 4 4 3 3 3 3 3 4 6 6 6 5 6
3 3 4 4 4 3 4 3 2 2 3 3 3 2 2 2 3 3 3 3 3 2 2 3 2 3 5 5 6 6 5 7
3 3 4 4 3 3 3 3 3 3 3 2 2 3 2 2 2 2 2 2 3 2 3 4 5 6 6 6 6 7 7 7
3 3 4 4 3 3 3 2 3 3 2 2 2 3 3 4 5 5 4 5 6 6 6 6 5 6 6 7 8 8 8 8
4 3 3 3 3 3 2 2 2 3 3 3 3 3 4 5 6 8 8 8 8 8 7 7 7 7 8 8 8 8 9 8
3 3 3 2 3 2 2 1 2 3 3 4 4 4 4 5 7 7 8 8 7 8 8 8 8 8 8 8 8 9 8 7
2 3 3 2 2 2 1 1 2 3 3 5 3 3 3 4 5 5 5 7 8 8 7 8 8 8 9 9 9 8 8 8
2 2 2 2 2 3 2 2 2 2 5 4 4 4 5 5 5 5 4 5 6 6 7 8 8 9 9 9 9 8 8 9
4 6 4 3 3 2 1 3 4 4 4 5 5 5 5 5 5 5 5 5 5 6 7 8 8 8 8 8 8 7 8 8
5 5 3 3 3 2 2 3 4 4 4 4 5 4 4 4 3 3 5 5 6 8 9 9 11 8 7 8 8 8 8 8
5 4 4 4 3 3 3 3 3 2 4 5 5 5 3 3 5 6 6 7 8 8 9 9 12 8 8 8 8 8 8 8